Location: Oshawa
(43.9000°N, 78.8670°W)
Time: 08:14:49
(UTC-04:00)

Iridium 98 - Visible Passes

Search period start: 28 April 2017 00:00
Search period end: 08 May 2017 00:00
Orbit: 771 x 774 km, 86.4° (Epoch: 26 April)

Date Brightness Start Highest point End Pass type
(mag) Time Alt. Az. Time Alt. Az. Time Alt. Az.
28 Apr 7.4 00:13:50 10° NNE 00:16:52 20° ENE 00:16:52 20° ENE visible
28 Apr 6.6 01:53:41 10° NNW 01:57:14 37° NW 01:57:14 37° NW visible
28 Apr 7.9 23:40:32 10° NE 23:41:57 12° ENE 23:41:57 12° ENE visible
29 Apr 6.2 01:18:28 10° N 01:22:19 51° N 01:22:19 51° N visible
29 Apr 7.9 03:02:14 10° WNW 03:02:41 10° WNW 03:02:41 10° WNW visible
30 Apr 6.5 00:43:32 10° N 00:47:25 41° NE 00:47:25 41° NE visible
30 Apr 7.4 02:25:03 10° NNW 02:27:47 19° WNW 02:27:47 19° WNW visible
01 May 7.0 00:08:56 10° NNE 00:12:31 26° ENE 00:12:31 26° ENE visible
01 May 6.8 01:49:17 10° NNW 01:52:53 33° WNW 01:52:53 33° WNW visible
01 May 7.6 23:34:58 10° NE 23:37:37 15° ENE 23:37:37 15° ENE visible
02 May 6.1 01:13:56 10° N 01:17:59 52° NNW 01:17:59 52° NNW visible
03 May 6.1 00:38:53 10° N 00:43:06 53° NE 00:43:06 53° NE visible
03 May 7.6 02:21:02 10° NW 02:23:28 16° WNW 02:23:28 16° WNW visible
04 May 6.6 00:04:09 10° NNE 00:08:13 33° ENE 00:08:13 33° ENE visible
04 May 7.0 01:44:56 10° NNW 01:48:35 28° WNW 01:48:35 28° WNW visible
04 May 7.3 23:29:50 10° NNE 23:33:20 19° ENE 23:33:20 19° ENE visible
05 May 6.2 01:09:27 10° NNW 01:13:42 48° NW 01:13:42 48° NW visible
05 May 7.8 22:57:15 10° ENE 22:58:03 10° ENE 22:58:27 10° ENE visible
06 May 5.7 00:34:17 10° N 00:38:49 67° NNE 00:38:49 67° NNE visible
06 May 7.8 02:17:21 10° NW 02:19:11 12° WNW 02:19:11 12° WNW visible
06 May 6.2 23:59:24 10° N 00:03:57 43° ENE 00:03:57 43° ENE visible
07 May 7.2 01:40:41 10° NNW 01:44:19 22° WNW 01:44:19 22° WNW visible
07 May 6.9 23:24:52 10° NNE 23:29:05 25° ENE 23:29:05 25° ENE visible
